Flag for South Africa Past Weather in Marion Island (Prince Edward Islands), South Africa — Yesterday and Last 2 Weeks

Now
38 °F

Chilly.


Feels Like: 32 °F
Forecast: 38 / 42 °F
Wind: 9 mph from South

Location: Alfred Faure Iles Crozet

Current Time: Apr 28, 2017 at 8:00:45 am

Latest Report: Apr 28, 2017 at 7:00 am


Visibility: N/A

Pressure: 30.51 "Hg

Humidity: 77%

Dew Point: 31 °F

Location of Marion Island (Prince Edward Islands)Location

Past Weather in Marion Island (Prince Edward Islands) — Graph

°F

Marion Island (Prince Edward Islands) Temperature Yesterday

Maximum temperature yesterday: 41 °F (at 12:00 pm)
Minimum temperature yesterday: 36 °F (at 10:00 pm)
Average temperature yesterday: 38 °F

High & Low Weather Summary for the Past Weeks

 TemperatureHumidityPressure
High63 °F (Apr 14, 1:00 pm)100% (Apr 13, 11:00 am)30.50 "Hg (Apr 13, 11:00 am)
Low30 °F (Apr 24, 9:00 am)6% (Apr 21, 3:00 am)29.00 "Hg (Apr 24, 8:00 am)
Average42 °F81%29.83 "Hg
* Reported Apr 13 6:00 am — Apr 28 6:00 am, Marion Island (Prince Edward Islands), Weather by CustomWeather, © 2017

Note: Actual official high and low records may vary slightly from our data, if they occured in-between our weather recording intervals... More about our weather records

Advertising

Marion Island (Prince Edward Islands) Weather History for the Previous 24 Hours

Scroll right to see more
 ConditionsComfort  
Time TempWeatherWind HumidityBarometerVisibility
6:00 am
Fri, Apr 28
38 °FChilly.14 mph79%30.49 "HgN/A
5:00 am38 °FChilly.10 mph80%30.50 "HgN/A
4:00 am37 °FChilly.6 mph77%30.47 "HgN/A
3:00 am36 °FChilly.7 mph80%30.47 "HgN/A
2:00 am37 °FChilly.5 mph74%30.50 "HgN/A
1:00 am37 °FChilly.3 mph75%30.50 "HgN/A
12:00 am36 °FChilly.3 mph77%30.48 "HgN/A
11:00 pm
Thu, Apr 27
37 °FChilly.18 mph79%30.48 "HgN/A
10:00 pm36 °FChilly.25 mph80%30.47 "HgN/A
9:00 pm37 °FChilly.18 mph78%30.47 "HgN/A
8:00 pm37 °FChilly.13 mph80%30.47 "HgN/A
7:00 pm37 °FChilly.15 mph82%30.45 "HgN/A
6:00 pm37 °FChilly.16 mph79%30.43 "HgN/A
5:00 pm38 °FChilly.17 mph77%30.40 "HgN/A
4:00 pm38 °FChilly.20 mph73%30.38 "HgN/A
3:00 pm39 °FChilly.18 mph73%30.36 "HgN/A
2:00 pm40 °FChilly.22 mph68%30.32 "HgN/A
1:00 pm40 °FQuite cool.23 mph70%30.30 "HgN/A
12:00 pm41 °FQuite cool.25 mph76%30.27 "HgN/A
11:00 am40 °FChilly.28 mph75%30.23 "HgN/A
10:00 am38 °FChilly.32 mph79%30.19 "HgN/A
9:00 am39 °FChilly.33 mph79%30.15 "HgN/A
8:00 am38 °FChilly.36 mph79%30.09 "HgN/A
Weather by CustomWeather, © 2017

See weather overviewHow to use our weather pages